Regional Weather Roundup
Issued by NWS Jackson, KY

Home | Current Version | Previous Version | Text Only | Print | Product List | Glossary On
Versions: 1 2 3 4 5 6 7 8 9 10 11 12 13 14 15 16 17 18 19 20 21 22 23 24 25 26 27 28 29 30 31 32 33 34 35 36 37 38 39 40 41 42 43 44 45 46 47 48 49 50
000
ASUS43 KJKL 231510
RWRJKL

EAST KENTUCKY HOURLY WEATHER ROUNDUP
NATIONAL WEATHER SERVICE JACKSON KY
1100 AM EDT SAT MAY 23 2015

NOTE: "FAIR" INDICATES FEW OR NO CLOUDS BELOW 12,000 FEET WITH
NO SIGNIFICANT WEATHER AND/OR OBSTRUCTIONS TO VISIBILITY.

* THESE REPORTS ARE NOT UNDER NWS QUALITY CONTROL AND MAY NOT
  REPORT WEATHER SUCH AS PRECIPITATION AND FOG.

KYZ079-080-083-085-087-088-110-112-115-119-120-231600
...EASTERN KENTUCKY...

CITY           SKY/WX    TMP DP  RH WIND       PRES   REMARKS
JACKSON        SUNNY     69  51  52 CALM      30.43S
LONDON         SUNNY     71  44  37 E6        30.42S
SOMERSET*      MOSUNNY   70  45  40 E6        30.42S
MONTICELLO*    SUNNY     72  48  42 SE9       30.43F
MIDDLESBORO*   SUNNY     67  49  52 CALM      30.43S
HARLAN APT*    SUNNY     66  46  48 CALM      30.44R
HAZARD APT*    SUNNY     72  48  43 CALM      30.42F
BLACK MTN*       N/A     63  43  48 E3          N/A
PIKEVILLE APT* SUNNY     66  50  55 S3        30.43F
BIG SANDY*     MOSUNNY   66  51  58 S3        30.43S
MOREHEAD APT*  MOSUNNY   66  52  59 SE3       30.43S
$$

KYZ035-036-041-042-044-050-067-078-099-231600
...CENTRAL KENTUCKY...

CITY           SKY/WX    TMP DP  RH WIND       PRES   REMARKS
MT STERLING*   PTSUNNY   68  54  60 S6        30.42S
FLEMING/MASON* SUNNY     66  54  63 CALM      30.42S
DANVILLE*      SUNNY     72  46  40 S9        30.42S
RICHMOND*      SUNNY     72  48  43 SE5       30.40F
LEXINGTON      PTSUNNY   70  51  51 S8        30.40S
FRANKFORT      CLOUDY    71  52  50 SE7       30.39R
$$

KYZ091>093-OHZ055-061-077-WVZ005-015-034-035-042-231600
...SOUTHERN OHIO/WEST VIRGINIA...

CITY           SKY/WX    TMP DP  RH WIND       PRES   REMARKS
COVINGTON      PTSUNNY   69  52  54 CALM      30.40R
COLUMBUS       MOSUNNY   65  40  39 SE7       30.41S
DAYTON         MOSUNNY   66  47  50 S6        30.41S
WILMINGTON     MOSUNNY   69  46  43 VRB5      30.40S
HUNTINGTON     MOSUNNY   66  52  60 SW6       30.41S
CHARLESTON     PTSUNNY   66  51  58 VRB3      30.42S
PINEVILLE*     PTSUNNY   66  51  59 MISG      30.50S
BECKLEY        PTSUNNY   65  46  50 W7        30.46S
BLUEFIELD      PTSUNNY   65  44  46 CALM      30.48R
$$

VAZ002-007-008-TNZ017-027-036-066-071-231600
...SOUTHWEST VIRGINIA/EAST TENNESSEE...

CITY           SKY/WX    TMP DP  RH WIND       PRES   REMARKS
WISE*          SUNNY     66  37  34 SE6       30.47S
JONESVILLE*    SUNNY     70  45  40 NE6       30.45S
ABINGDON*      SUNNY     71  40  32 SE3       30.44S
BRISTOL        MOSUNNY   69  46  43 NE3       30.43F
KNOXVILLE      PTSUNNY   66  51  58 NE5       30.40S
OAK RIDGE      MOSUNNY   69  48  47 VRB3      30.42S
CROSSVILLE     MOSUNNY   67  50  54 VRB6      30.41S
NASHVILLE      PTSUNNY   68  49  50 CALM      30.37S
$$

...KEY TO REMARKS...
VSB - VISIBILITY IN MILES
WCI - WIND CHILL INDEX
HX  - HEAT INDEX

$$


USA.gov is the U.S. government's official web portal to all federal, state and local government web resources and services.